Location: Izdebno
(52.6670°N, 16.2170°E)
Time: 05:38:00
(UTC+02:00)

A-11 Canister half - Pass Details

Date: 17 February 2023
Orbit: 1526 x 1682 km, 47.3° (Epoch: 25 March)

Event Time Altitude Azimuth Distance (km) Brightness Sun altitude
Rises 04:56:41 0° 262° (W) 4,692 - -20.5°
Reaches altitude 10° 04:59:46 10° 260° (W) 3,701 - -20.1°
Exits shadow 05:03:26 27° 253° (WSW) 2,594 9.6 -19.5°
Maximum altitude 05:08:54 64° 182° (S) 1,665 9.1 -18.7°
Drops below altitude 10° 05:18:05 10° 104° (ESE) 3,719 12.2 -17.3°
Sets 05:21:11 0° 101° (E) 4,716 13.1 -16.8°
